Skip Page Navigation
NASA JPL Caltech
NASA Logo - Jet Propulsion Laboratory + View the NASA Portal
+ Center for Near-Earth Object Studies
JPL Home Earth Solar System Stars & Galaxies Technology
JPL Solar System Dynamics
BODIES ORBITS EPHEMERIDES TOOLS PHYSICAL DATA DISCOVERY FAQ SITE MAP
JPL Small-Body Database Browser
Search: [ help ]  
102359 (1999 TO134)
Classification: Main-belt Asteroid          SPK-ID: 2102359
Ephemeris | Orbit Diagram | Orbital Elements | Mission Design | Physical Parameters | Discovery Circumstances | Close-Approach Data ]

[ show orbit diagram ]
Orbital Elements at Epoch 2459200.5 (2020-Dec-17.0) TDB
Reference: JPL 20 (heliocentric ecliptic J2000)
 Element Value Uncertainty (1-sigma)   Units 
e .02947132982072025 4.1127e-08  
a 2.587513578860769 1.5229e-08 au
q 2.511256112762571 1.0434e-07 au
i 3.97389578667917 4.8887e-06 deg
node 3.629638020602116 6.278e-05 deg
peri 272.23864119 0.00010618 deg
M 130.0677441162229 8.6836e-05 deg
tp 2458651.225432976865
(2019-Jun-16.72543298)
0.00036538 TDB
period 1520.275802981849
4.16
1.3421e-05
3.674e-08
d
yr
n .2367991382181448 2.0905e-09 deg/d
Q 2.663771044958967 1.5678e-08 au
  Orbit Determination Parameters
   # obs. used (total)      440  
   data-arc span      9218 days (25.24 yr)  
   first obs. used      1995-10-15  
   last obs. used      2021-01-09  
   planetary ephem.      DE431  
   SB-pert. ephem.      SB431-N16  
   condition code      0  
   norm. resid. RMS      .55925  
   source      ORB  
   producer      Otto Matic  
   solution date      2021-Feb-24 08:31:12  

Additional Information
 Earth MOID = 1.49709 au 
 Jupiter MOID = 2.35398 au 
 T_jup = 3.417 
[ hide covariance matrix ]
Orbital Elements at Epoch 2457530.5 (2016-May-22.0) TDB
Reference: JPL 20 (heliocentric ecliptic J2000)
 Element Value Uncertainty (1-sigma)   Units 
e .02987549629113918 4.0885e-08  
q 2.510944587882348 1.0367e-07 au
tp 2457142.419533296901
(2015-Apr-29.91953330)
0.0003592 TDB
node 3.73108321988403 6.2698e-05 deg
peri 275.03211904185 0.00010554 deg
i 3.976559081186887 4.8917e-06 deg
  Orbit Determination Parameters
   # obs. used (total)      440  
   data-arc span      9218 days (25.24 yr)  
   first obs. used      1995-10-15  
   last obs. used      2021-01-09  
   planetary ephem.      DE431  
   SB-pert. ephem.      SB431-N16  
   condition code      0  
   norm. resid. RMS      .55925  
   source      ORB  
   producer      Otto Matic  
   solution date      2021-Feb-24 08:31:12  

Additional Information
 Jupiter MOID = 2.35398 au 
 T_jup = 3.417 
Orbit Covariance (6×6)
  e q tp node peri i
e 1.671605447337918E-15 -4.197149959687822E-15 -1.561548847035788E-13 -1.615369355874444E-14 -5.809736869331181E-14 -1.376713111332314E-15
q -4.197149959687822E-15 1.074691517031641E-14 1.511057565188051E-12 4.14531571039844E-14 4.180266794347821E-13 3.679305156587349E-15
tp -1.561548847035788E-13 1.511057565188051E-12 1.290261551942634E-7 4.433082380334709E-11 3.051523973011664E-8 -1.437259117482513E-11
node -1.615369355874444E-14 4.14531571039844E-14 4.433082380334709E-11 3.931013039900875E-9 -3.910057861054058E-9 3.622226796105556E-11
peri -5.809736869331181E-14 4.180266794347821E-13 3.051523973011664E-8 -3.910057861054058E-9 1.113912589601128E-8 -3.945741673858316E-11
i -1.376713111332314E-15 3.679305156587349E-15 -1.437259117482513E-11 3.622226796105556E-11 -3.945741673858316E-11 2.392843077710384E-11

Ephemeris | Orbit Diagram | Orbital Elements | Mission Design | Physical Parameters | Discovery Circumstances | Close-Approach Data ]

Physical Parameter Table
Parameter Symbol Value Units Sigma Reference Notes
absolute magnitude H 16.24   n/a E2021B55  
diameter diameter 2.922 km 0.153 urn:nasa:pds:neowise_diameters_albedos::2.0[mainbelt] (http://adsabs.harvard.edu/abs/2011ApJ...741...68M)  
geometric albedo albedo 0.047   0.009 urn:nasa:pds:neowise_diameters_albedos::2.0[mainbelt] (http://adsabs.harvard.edu/abs/2011ApJ...741...68M)  

102359 (1999 TO134)          Discovered 1999-Oct-06 by LINEAR at Socorro
Reference: 20051019/Numbers.arcLast Updated: 2005-10-26

[ show close-approach data ]
Alternate Designations
 1999 TO134 = 1995 TV6 
Ephemeris | Orbit Diagram | Orbital Elements | Mission Design | Physical Parameters | Discovery Circumstances | Close-Approach Data ]
ABOUT SSD CREDITS/AWARDS PRIVACY/COPYRIGHT GLOSSARY LINKS
FirstGov 2021-Apr-13 08:41 UT
(server date/time)  
NASA Home Page
Site Manager:   Ryan S. Park
Webmaster  Alan B. Chamberlin